Regional Weather Roundup
Issued by NWS Newport/Morehead, NC

Current Version | Previous Version | Graphics & Text | Print | Product List | Glossary Off
Versions: 1 2 3 4 5 6 7 8 9 10 11 12 13 14 15 16 17 18 19 20 21 22 23 24 25 26 27 28 29 30 31 32 33 34 35 36 37 38 39 40 41 42 43 44 45 46 47 48 49 50

000
ASUS42 KMHX 011010
RWRMHX
WEATHER ROUNDUP FOR EASTERN NORTH CAROLINA
NATIONAL WEATHER SERVICE NEWPORT/MOREHEAD CITY NC
500 AM EST SUN FEB 01 2015

NOTE: "FAIR" INDICATES FEW OR NO CLOUDS BELOW 12,000 FEET
WITH NO SIGNIFICANT WEATHER AND/OR OBSTRUCTIONS TO VISIBILITY

NCZ015>017-031-032-045>047-102-103-011100-
NORTH COAST

CITY           SKY/WX    TMP DP  RH WIND       PRES   REMARKS
EDENTON        CLOUDY    38  23  56 SW7       30.28R
ELIZABETH CITY MOCLDY    31  22  69 SW5       30.28S
KITTY HAWK     MOSUNNY   34  27  75 CALM      30.27S
MANTEO         CLEAR     34  28  80 SW5       30.29S

$$

NCZ045>047-081-094-103-104-011100-
CENTRAL COAST

CITY           SKY/WX    TMP DP  RH WIND       PRES   REMARKS
FRISCO         CLEAR     37  28  70 W7        30.30S
SWANQUARTER      N/A     37 N/A N/A SW8       30.27S

$$

NCZ095-097-098-100-101-011100-
SOUTHERN COAST

CITY           SKY/WX    TMP DP  RH WIND       PRES   REMARKS
BEAUFORT       PTCLDY    37  31  78 CALM      30.32R
CEDAR ISLAND     N/A     36 N/A N/A SW5       30.33S
JACKSONVILLE   MOCLDY    36  26  67 W6        30.31S
PINEY ISLAND     N/A    N/A N/A N/A MISG      30.31R
WILMINGTON     MOCLDY    36  30  79 CALM      30.32S


$$

NCZ011>013-027>030-043-044-078>080-089-090>093-098-011100-
COASTAL PLAIN

CITY           SKY/WX    TMP DP  RH WIND       PRES   REMARKS
AHOSKIE        CLOUDY    29  22  75 CALM      30.29R
CLINTON        MOCLDY    36  25  63 CALM      30.30F
ELIZABETHTOWN  CLOUDY    38  26  61 S3        30.30S
GOLDSBORO      CLOUDY    38  25  61 CALM      30.27F
GREENVILLE     MOCLDY    34  21  60 SW3       30.29F
HAVELOCK       PTCLDY    35  25  66 SW6       30.32S
KENANSVILLE    MOCLDY    34  25  69 CALM      30.31F
KINSTON        PTCLDY    32  26  77 S3        30.30S
NEW BERN       PTCLDY    35  23  61 SW6       30.32S
RICHLANDS      MOCLDY    34  27  75 SW3       30.31F
ROCKY MOUNT    MOCLDY    35  21  56 S5        30.28S
WASHINGTON     MOCLDY    33  21  60 CALM      30.30R
WHITEVILLE     CLOUDY    37  29  73 CALM      30.31R

$$

AMZ130-135-150-152-154-156-158-170-250-252-270-ANZ085-086-088-633-658-670-011100-
MARINE OBSERVATIONS

STATION/POSITION TIME  TEMP    WIND        PRES    WAVE   SWELL
                       AIR SEA DIR/SP/G            HT/PER HT/PER
                 (UTC) (F)     (DEG/KT/KT) (MB)    (FT/S) (FT/S)
CHESAPEAKE LIGHT 0900   37      CALM  /  1 1025.7
64 E VA BEACH    1000   42 48  300/  8/ 12 1025.0    4/ 8   3/ 8
DUCK             1000   37 41  220/  8/  9 1024.3
2 E DUCK         1000      40                N/A     3/ 8
10 NE DUCK       1000      43                N/A     3/ 8   2/11
OREGON INLET     1000   39 38  230/ 12/ 13 1025.4
13E OREGON INLT  1000      45                N/A     5/11   2/11
HATTERAS CG      1000   42 40  270/  9/ 12 1026.3
DIAMOND BUOY     1000   51 72  280/ 14/ 17 1025.6    7/11   7/11
17 S OCRACOKE    NOT AVBL
CAPE LOOKOUT     0900   46     270/  8/ 10 1026.2
BEAUFORT LAB     1000   42 45  260/  2/  4 1025.4
27 SE WRIGHTSVLE NOT AVBL
5 SE WRIGHTSVLE  0900   47 51  270/ 10/ 12 1026.5
225 S CAPE HAT   0854   57 70  350/  6/  8 1026.7    8/11   8/11
41 SE CHARLESTON 1000   56 69   70/  2/  4 1026.0    4/10   3/10

$$


USA.gov is the U.S. government's official web portal to all federal, state and local government web resources and services.